RH
72 68 75 84 55 44 55 56 46 52 50 46 43 47 56 70 65 77 65 65 62 63 89 78 82 78 76 78 80 80 78 77 80 80 77 74 76 77 76 75 74 73 73 73 72 70 71 71 72
65 71 81 72 49 46 55 54 56 57 51 46 52 53 57 72 70 72 71 67 60 57 66 74 83 81 76 77 78 78 74 74 76 76 75 74 74 75 74 75 75 74 72 72 71 72 71 71 72
63 67 65 55 50 50 54 58 60 51 45 50 59 51 58 73 72 67 60 64 63 63 62 62 81 81 76 77 76 76 75 75 75 75 74 74 74 73 75 74 75 74 74 72 70 71 70 72 71
68 70 47 43 50 49 51 56 53 56 52 50 49 63 57 58 64 58 62 61 61 62 57 70 77 77 77 77 76 74 74 74 74 75 74 75 74 73 72 75 74 71 71 74 73 71 70 71 70
56 47 40 49 52 52 50 50 51 60 62 53 50 68 67 60 56 60 64 60 60 63 66 57 78 74 76 76 75 75 74 74 74 74 74 73 73 73 72 70 72 71 72 73 73 74 71 70 70
43 34 41 48 51 56 53 50 54 58 59 58 58 60 75 63 60 63 59 60 62 61 61 55 71 73 72 73 74 74 74 74 74 73 73 74 73 74 74 68 70 74 74 73 73 72 71 70 69
40 37 40 44 53 59 58 51 53 55 55 58 52 67 72 66 56 56 60 61 62 58 58 58 54 64 72 74 74 73 73 73 72 73 72 76 73 75 75 70 67 67 69 73 70 67 68 68 69
35 28 35 38 44 56 53 49 48 51 60 49 47 63 72 62 57 59 66 68 68 66 59 62 63 55 61 65 74 73 73 72 72 73 72 72 72 71 73 75 72 66 64 68 67 69 70 71 70
28 31 36 35 39 55 48 53 51 47 50 56 56 49 46 56 60 64 72 77 72 67 58 49 54 61 67 65 65 73 73 73 75 69 71 78 92 80 71 75 74 74 73 71 69 70 73 70 68
23 33 32 29 36 49 47 52 54 54 58 73 68 57 57 62 67 74 70 76 63 59 55 50 61 66 64 59 68 68 63 57 73 76 74 80 72 64 55 62 71 70 68 68 69 69 67 64 50
24 29 27 34 39 44 51 51 49 51 55 60 79 68 66 66 72 76 67 66 52 51 53 59 72 71 68 68 72 71 61 66 80 80 76 68 66 61 49 52 71 73 71 54 58 56 51 60 61
23 24 28 45 46 47 49 46 52 51 55 47 62 59 62 68 68 65 63 62 62 59 55 58 67 77 79 91 93 88 85 74 80 66 72 77 74 67 66 78 67 65 56 60 60 53 58 59 57
21 24 33 43 42 45 44 51 50 56 56 58 61 62 63 61 61 59 57 58 62 62 56 62 69 79 91 96 96 82 90 83 73 68 80 75 69 63 59 69 77 73 60 56 59 61 62 72 57
24 31 37 40 43 45 44 50 40 56 52 61 63 61 59 60 59 60 60 61 61 58 53 52 64 75 84 90 84 72 72 67 66 65 72 84 64 67 62 65 63 62 85 54 59 62 61 62 60
24 32 35 42 44 48 43 45 43 50 48 55 58 57 58 57 56 57 54 56 56 54 54 57 60 62 74 74 72 72 72 69 67 70 78 81 85 80 78 77 75 74 94 84 84 88 92 74 58
24 27 32 37 42 47 37 42 49 50 50 50 51 53 54 54 50 50 49 50 49 52 58 60 54 56 64 70 71 68 73 74 67 70 72 74 77 78 78 72 70 73 94 96 97 97 97 96 96
22 27 30 34 35 41 44 41 42 48 48 47 50 48 50 50 50 49 46 47 45 49 54 57 58 56 62 71 70 72 75 83 98 96 97 88 82 80 83 78 76 79 69 69 76 86 82 86 87
24 20 21 25 29 36 44 39 44 48 46 48 47 48 50 48 45 44 45 45 44 46 50 56 53 63 71 71 81 77 88 79 99 99 99 98 96 92 89 93 92 82 78 73 69 76 72 88 73
18 19 20 18 17 32 37 36 43 45 48 46 47 46 44 44 41 43 45 45 45 49 53 56 61 68 70 75 82 78 76 85 97 98 94 94 97 98 98 98 93 92 90 78 81 81 86 87 94
19 20 20 18 23 28 37 38 38 43 47 44 42 45 45 43 46 47 49 45 46 48 55 58 64 68 72 67 81 79 80 82 80 89 90 91 95 95 93 95 94 94 97 90 84 88 94 96 95
18 18 16 16 26 28 33 33 43 41 44 44 42 42 42 45 45 51 54 48 43 50 54 57 65 69 75 77 80 85 86 84 88 94 97 95 92 92 93 94 95 94 98 99 98 93 95 96 91
15 15 14 14 16 19 27 24 36 42 47 47 42 40 38 46 45 44 47 54 51 50 52 63 68 74 80 82 83 83 81 93 91 93 91 88 88 92 94 94 94 95 96 98 97 94 93 97 89
13 14 15 16 18 23 28 25 21 44 48 46 43 38 39 53 50 46 59 61 64 58 57 66 76 84 87 90 93 94 92 88 90 92 79 84 82 75 75 86 91 93 99 98 97 95 94 97 89
11 13 18 19 18 22 23 24 17 36 46 41 40 38 43 54 57 60 64 64 63 66 76 74 82 87 90 91 94 92 92 95 94 92 85 79 72 69 80 80 81 90 90 92 94 93 94 95 95
12 11 19 21 21 19 25 27 18 31 35 43 41 37 47 53 65 61 63 62 72 66 60 66 89 95 92 87 88 90 96 97 96 93 82 86 81 69 78 82 83 79 86 85 88 92 93 92 95
12 11 17 26 21 19 32 26 18 38 48 53 55 43 54 58 63 58 55 61 66 65 63 74 85 96 94 90 96 96 98 98 94 89 90 88 90 91 83 78 79 80 80 81 86 85 89 91 94
15 15 12 16 24 22 27 31 29 37 48 58 59 56 57 54 59 57 53 58 69 74 69 76 85 84 86 86 90 90 94 88 87 86 84 80 73 72 75 76 74 77 78 81 83 73 80 87 90
11 13 16 21 31 28 30 39 24 45 45 59 60 58 58 57 58 56 60 68 67 68 74 73 80 85 83 78 78 80 83 80 79 74 78 78 74 74 75 73 72 72 73 79 84 81 84 82 72
16 16 22 19 24 21 24 26 26 38 40 50 58 62 62 59 58 58 66 72 72 68 72 73 80 79 75 74 78 78 74 74 73 69 73 75 75 77 76 77 74 74 74 76 77 77 75 78 80
8 10 11 16 30 32 26 19 37 42 40 51 62 65 67 74 70 66 67 70 72 80 76 79 75 72 68 71 70 67 66 70 67 70 68 68 73 74 77 76 75 74 74 75 76 74 72 75 74
Wind_Speed
15 10 3 2 1 3 5 8 9 13 9 1 5 2 6 6 4 7 7 7 13 15 10 11 14 15 14 13 13 14 15 15 15 15 14 12 11 11 13 13 12 12 12 12 12 12 12 12 13
10 9 2 1 4 10 6 5 8 4 8 15 9 7 5 5 4 10 9 10 13 14 13 10 13 15 14 13 13 13 14 14 13 13 12 11 10 10 12 13 12 13 12 13 12 12 12 13 14
9 0 2 3 3 9 6 7 12 14 11 5 5 9 3 3 5 10 8 13 12 11 12 12 12 14 14 14 13 12 13 13 12 12 12 11 11 10 12 12 12 13 12 12 12 13 12 13 13
3 1 2 5 8 5 4 9 13 9 9 6 10 8 5 5 7 5 15 14 13 12 12 14 13 13 13 12 12 12 12 11 11 11 10 11 11 10 12 11 12 12 11 12 12 13 12 12 10
1 1 4 4 6 4 5 8 6 4 5 7 3 7 9 5 7 16 13 12 13 11 11 13 11 12 11 11 10 10 9 9 9 9 9 9 11 11 12 10 11 12 11 11 12 12 11 10 9
1 1 3 4 4 4 3 3 4 7 7 9 12 11 4 5 15 13 11 12 11 12 11 12 11 11 11 10 9 8 7 7 7 7 8 9 8 10 12 11 10 11 11 11 11 10 9 9 7
2 2 2 1 2 3 1 3 2 6 9 7 11 7 5 10 15 13 11 11 11 11 11 10 10 10 10 9 9 8 7 6 6 6 6 8 8 9 10 11 10 10 10 10 10 9 9 8 6
1 1 1 1 1 3 5 3 7 3 8 10 6 7 8 15 15 12 11 11 10 9 10 10 9 9 8 8 10 9 7 7 6 6 6 6 7 7 8 7 8 10 9 8 8 8 7 5 4
2 1 1 2 2 5 7 4 4 5 11 5 2 7 13 19 16 14 12 10 10 8 9 9 9 8 7 6 7 8 8 8 8 5 4 3 3 2 3 5 7 6 7 6 6 6 6 5 4
1 1 2 1 5 6 7 3 5 5 7 5 9 13 20 18 15 13 14 12 13 12 11 9 8 7 7 5 5 5 5 6 4 2 2 2 3 3 2 2 3 5 5 5 6 5 5 7 3
2 3 1 3 7 13 7 5 2 5 2 6 13 21 20 18 15 13 13 12 13 12 10 11 8 7 7 5 4 3 4 3 3 3 3 3 1 1 2 2 2 1 1 4 5 5 5 4 3
1 6 5 6 6 7 6 6 6 3 4 7 17 20 20 18 16 15 14 12 11 11 12 11 10 9 9 4 3 5 5 5 4 6 5 3 2 3 3 1 3 4 4 4 4 4 4 4 5
2 3 8 9 10 8 8 5 7 8 11 15 17 18 17 16 16 13 11 11 12 13 13 14 14 12 8 6 4 5 6 6 7 6 5 4 4 4 4 3 3 4 5 5 5 4 4 4 6
5 10 12 9 7 7 9 6 2 5 12 14 16 16 14 15 15 13 14 13 13 12 14 13 14 11 6 7 9 7 6 7 6 6 7 7 6 5 5 4 5 5 3 7 6 6 6 6 7
7 10 10 9 6 3 7 2 6 13 13 14 14 13 13 13 14 14 13 13 12 11 11 12 13 12 11 12 11 7 6 5 5 6 5 5 7 8 7 5 5 5 4 6 4 4 3 7 8
4 4 3 8 8 6 4 1 5 13 14 14 13 11 12 13 12 11 11 11 11 11 13 12 11 12 13 11 9 8 6 5 2 2 5 7 8 10 9 8 8 6 4 4 5 5 5 7 6
2 1 6 3 10 7 7 3 10 13 14 13 11 10 10 9 11 11 11 12 12 13 12 13 13 14 12 11 8 7 6 3 3 2 3 8 9 9 8 8 9 8 7 7 7 6 9 7 6
3 1 1 4 9 12 11 10 13 16 15 13 13 12 11 12 14 13 12 11 11 11 11 11 10 12 10 6 5 4 2 3 5 6 6 9 5 6 8 8 9 9 8 8 8 10 8 8 9
2 3 5 7 4 10 16 12 13 17 15 14 13 13 13 14 11 9 11 13 12 10 10 11 11 10 7 5 3 4 5 4 6 5 9 7 6 7 8 8 9 9 9 10 10 9 9 8 6
1 2 4 6 7 9 2 12 11 17 19 16 15 15 16 13 10 7 10 10 11 11 11 9 9 8 7 5 2 1 1 2 3 4 6 6 9 9 11 11 8 8 6 10 11 10 5 4 4
3 3 3 4 2 2 3 4 8 13 13 14 15 14 12 11 10 9 6 6 7 7 8 8 7 5 3 2 3 2 1 3 3 3 4 6 9 11 9 9 7 6 6 6 8 9 10 6 6
7 7 4 3 5 4 3 4 3 8 13 16 17 16 13 11 12 11 3 7 6 4 4 5 5 5 5 4 2 4 5 6 4 5 5 5 6 8 9 9 8 6 6 9 7 8 10 7 8
5 2 3 2 2 3 5 4 1 2 9 16 18 16 12 12 12 9 8 8 4 3 10 9 11 13 13 11 7 5 7 8 5 6 4 2 3 1 2 5 6 6 5 6 8 8 9 7 8
2 3 3 3 2 4 2 6 4 4 2 6 11 12 14 15 12 8 8 7 6 9 10 13 16 13 11 11 9 9 11 11 6 3 3 3 3 3 6 5 3 2 4 6 6 7 8 7 8
4 4 3 4 4 1 3 6 8 4 4 6 5 7 15 16 12 10 5 4 8 6 9 10 13 9 8 6 2 11 13 11 5 4 3 4 4 4 7 7 6 5 4 3 3 4 5 6 7
5 7 4 5 3 1 2 5 2 2 3 5 3 7 14 15 12 10 8 6 7 8 6 7 5 6 6 10 13 13 18 4 4 6 5 5 5 6 8 7 7 8 7 6 4 3 3 4 5
6 6 2 5 1 4 2 4 10 7 2 3 7 11 13 12 12 11 8 7 7 7 6 4 9 10 12 13 14 13 11 7 5 5 4 5 6 6 8 7 8 9 8 8 7 4 5 6 5
4 10 5 1 5 5 4 4 7 6 8 5 6 9 9 10 10 9 6 5 5 5 6 8 10 11 12 13 13 11 11 8 6 5 7 7 7 7 7 8 8 8 9 9 8 6 7 8 6
5 5 3 3 2 5 5 4 3 4 12 12 9 9 10 9 8 7 6 6 6 8 10 13 12 12 10 11 13 11 10 9 6 6 8 7 6 6 8 9 9 8 8 9 8 9 8 9 8
2 2 6 5 6 1 4 4 1 1 10 12 11 11 10 8 9 9 9 8 8 8 10 12 11 10 10 11 11 11 10 8 7 7 7 6 8 8 7 7 8 8 8 9 10 10 10 10 10
Wind_Direction
145 142 148 229 310 56 48 68 100 115 123 129 120 73 92 45 11 81 137 126 135 135 162 171 131 123 124 120 115 112 113 119 123 124 130 132 130 132 132 125 127 120 117 113 110 111 108 107 108
145 141 196 291 52 61 51 36 113 84 115 118 100 106 61 73 69 115 129 144 144 145 162 143 127 126 128 120 116 116 122 126 125 126 130 130 125 136 135 126 125 115 120 117 115 109 111 113 105
156 236 309 54 42 49 58 57 99 112 127 130 110 57 61 71 111 134 128 145 143 143 142 137 131 126 126 120 121 127 130 130 131 133 134 133 138 143 128 130 129 120 124 120 125 112 114 112 110
164 188 114 52 56 50 55 90 126 117 97 59 110 75 91 95 135 141 141 144 145 144 144 131 134 127 125 125 129 132 135 137 140 136 136 135 139 145 133 133 127 132 130 123 118 121 120 118 116
228 235 50 56 51 53 80 112 104 79 100 115 106 105 106 161 119 138 141 147 143 143 140 142 142 137 133 133 133 132 136 141 142 141 142 142 145 149 141 145 142 142 136 129 124 126 131 130 122
224 316 41 50 60 68 74 103 65 84 108 119 109 116 103 131 141 142 142 144 144 146 149 145 150 150 152 149 140 142 145 149 148 149 155 154 153 155 151 152 151 140 140 136 128 132 141 140 131
321 78 53 40 105 139 165 144 86 102 118 100 134 102 110 157 147 148 144 146 151 150 148 153 159 162 163 164 156 152 158 164 165 165 160 146 166 163 161 157 154 154 151 141 136 145 152 152 153
278 68 56 21 182 65 131 99 110 96 87 110 135 155 161 163 154 146 151 154 161 161 158 162 168 168 178 181 173 171 174 178 190 160 164 155 164 170 168 164 167 164 157 153 150 148 158 154 149
140 70 1 117 191 130 144 131 65 103 128 92 102 144 135 149 152 153 153 160 166 178 176 171 171 183 188 182 181 180 181 199 175 171 172 90 42 64 177 155 181 175 155 158 163 177 175 184 194
258 94 228 46 126 139 156 125 122 156 138 89 99 112 135 153 162 165 170 173 180 178 182 177 183 185 187 196 199 197 197 206 184 174 116 86 78 66 353 304 217 201 175 189 187 202 212 220 224
58 6 121 96 111 134 126 115 113 148 215 162 161 146 152 161 170 177 182 187 185 182 183 187 186 191 202 204 202 210 205 191 142 177 190 189 199 342 274 249 258 227 229 226 205 206 227 224 244
321 63 76 118 117 122 127 117 111 29 35 132 150 153 157 169 179 182 186 185 185 190 196 191 192 194 205 196 197 207 208 209 199 208 207 195 216 234 248 289 270 246 233 233 229 233 248 252 252
343 87 72 114 112 105 118 93 95 84 97 122 142 160 171 177 182 187 187 190 191 196 197 203 197 200 205 114 257 239 224 212 216 211 204 202 233 247 243 231 244 257 263 248 242 238 250 258 267
92 88 109 127 116 128 126 125 174 121 130 138 158 170 179 185 186 187 195 200 198 198 201 204 214 209 197 186 206 221 223 229 228 226 221 203 236 235 240 245 250 246 233 259 261 259 266 262 262
137 98 110 133 140 120 152 81 128 149 158 159 172 180 187 199 196 205 206 207 210 203 203 210 213 206 217 213 217 218 226 221 237 253 258 254 252 247 245 260 251 254 219 252 257 255 251 278 267
96 105 178 180 169 173 308 157 157 165 173 175 183 187 193 204 211 219 221 225 214 220 207 212 216 214 211 219 223 225 210 210 213 310 324 301 282 272 270 264 257 237 227 219 218 232 232 240 242
50 166 220 157 210 164 213 167 184 182 191 183 186 204 214 210 220 222 222 223 222 219 218 216 218 224 221 215 223 235 232 187 74 45 285 282 277 266 265 272 278 259 251 246 242 226 240 243 245
146 252 209 251 203 215 205 217 179 185 202 199 195 199 213 222 225 215 217 225 235 229 219 221 224 229 220 217 207 218 212 193 148 193 220 243 256 274 273 260 255 257 257 254 247 252 258 254 263
184 264 327 284 291 215 226 233 191 191 200 207 207 199 214 225 227 228 218 203 217 227 226 218 219 222 200 192 198 228 235 201 190 202 224 224 208 194 255 251 247 237 237 253 256 257 251 255 253
205 342 290 284 326 209 246 232 214 199 206 206 208 210 211 214 220 227 232 225 200 218 218 220 221 213 212 205 138 125 157 191 243 218 239 243 239 215 228 237 241 236 235 252 255 242 234 235 212
186 221 295 311 347 119 196 229 208 221 210 206 219 224 225 218 207 209 190 205 206 218 233 225 220 214 174 180 125 103 302 270 250 233 257 244 249 270 271 247 252 240 210 207 227 236 228 225 213
275 201 265 297 328 330 322 308 226 231 219 215 220 216 214 196 203 221 83 34 2 108 141 156 169 111 106 118 67 350 325 305 312 299 274 265 242 260 268 262 250 244 226 227 229 220 223 213 237
247 170 324 29 223 239 173 256 99 301 235 225 220 218 198 178 183 160 135 119 80 150 120 110 105 105 102 93 85 68 352 304 304 296 304 95 120 358 327 272 257 238 228 250 242 225 227 210 229
133 164 89 87 167 225 103 238 267 219 225 257 231 209 183 164 164 153 133 120 93 76 89 114 101 110 122 127 137 87 31 341 307 323 340 7 35 32 15 356 342 260 236 232 230 242 235 221 224
190 202 244 237 199 328 54 214 268 210 251 286 303 223 171 170 167 154 138 124 96 107 117 111 123 144 148 133 187 93 55 7 14 16 14 52 37 27 19 8 11 1 334 295 258 239 230 237 227
186 224 205 246 222 23 139 234 290 176 351 360 342 160 154 170 167 162 170 135 117 129 129 91 57 96 99 95 73 61 77 16 24 29 20 17 21 16 360 4 7 6 5 356 335 290 274 244 242
152 197 81 138 121 234 162 258 256 232 135 63 110 147 164 163 166 176 179 168 155 159 166 126 85 112 110 105 95 91 92 105 80 50 36 36 23 7 0 359 360 356 354 355 349 353 337 316 288
255 141 167 211 192 232 182 264 265 181 181 159 154 140 147 152 162 168 158 138 143 114 85 110 105 93 90 87 92 94 93 83 69 59 54 45 27 14 7 7 7 360 355 354 356 360 11 343 339
155 172 67 116 288 248 239 226 227 190 171 168 152 144 153 158 161 160 132 106 101 100 107 107 103 102 98 99 91 92 86 81 73 59 48 38 32 17 20 14 7 5 3 9 1 352 353 344 335
245 230 215 237 177 234 302 243 69 148 167 150 145 135 125 123 138 133 124 126 113 95 121 115 115 109 106 99 96 86 82 77 67 58 56 46 35 25 23 17 16 16 13 8 1 355 348 340 334